Hourly Data Report for June 10, 2020

OTTAWA INTL A
ONTARIO
Current Station Operator: NAVCAN

45°19'00.000" N
75°40'00.000" W
114.90 m
6106001
71628
YOW

Download Data

Hourly Data (June 2020)
Hourly Data Report for June 10, 2020
TIME
LST
Temp Definition
°C
Dew Point Definition
°C
Rel Hum Definition
%
Precip. Amount Definition
mm

Wind Dir Definition
10's deg

Wind Spd Definition
km/h
Visibility Definition
km
Stn Press Definition
kPa
Hmdx Definition


Wind Chill Definition


Weather Definition


00:00 15.2 11.7 79   9 11 24.1 100.05     LegendNANA
01:00 15.7 11.4 76   9 10 24.1 100.00     Mostly Cloudy
02:00 15.1 11.3 78   6 13 24.1 99.96     LegendNANA
03:00 14.4 11.1 80   6 17 24.1 99.88     LegendNANA
04:00 14.3 11.0 80   7 14 24.1 99.87     Mostly Cloudy
05:00 14.1 11.0 82   6 18 24.1 99.85     LegendNANA
06:00 15.5 11.7 78   8 19 24.1 99.82     LegendNANA
07:00 16.4 12.7 78   7 19 24.1 99.80     Mostly Cloudy
08:00 17.8 13.6 76   7 18 24.1 99.74     LegendNANA
09:00 18.2 14.0 76   8 17 24.1 99.76     LegendNANA
10:00 19.0 14.8 76   9 14 24.1 99.80     Cloudy
11:00 18.8 15.9 83   5 17 24.1 99.67     Rain
12:00 20.4 16.5 78   9 21 24.1 99.56 25   LegendNANA
13:00 23.8 17.9 69   11 16 24.1 99.53 30   Mainly Clear
14:00 26.3 18.3 61   11 23 24.1 99.43 33   LegendNANA
15:00 27.4 19.6 62   10 16 24.1 99.36 35   LegendNANA
16:00 28.9 21.3 63   13 11 24.1 99.29 38   Mostly Cloudy
17:00 28.3 22.5 70   12 8 24.1 99.24 38   LegendNANA
18:00 28.3 22.6 71   14 19 24.1 99.17 38   LegendNANA
19:00 26.7 22.3 76   14 16 24.1 99.13 36   Rain Showers
20:00 26.2 21.5 75   16 24 16.1 99.05 35   LegendNANA
21:00 25.9 21.0 74   16 25 24.1 99.04 34   LegendNANA
22:00 25.8 21.0 74   16 22 24.1 98.96 34   Mainly Clear
23:00   21.1 74   17 28 24.1 99.02     LegendNANA

Notes on Data Quality.

Legend

  • E = Estimated
  • M = Missing
  • NA = Not Available*
  • [empty] = Indicates an unobserved value
Date modified: